Location: Sawmill Trailhead
(33.5800°N, 116.4497°W)
Time: 09:40:49
(UTC-08:00)

Amateur Radio Satellites - All Passes

Search period start: 21 November 2014 09:10
Search period end: 22 November 2014 09:10
Location: Sawmill Trailhead, 33.5800°N, 116.4497°W

Satellite Date Start Highest point End Downlink Frequencies (MHz)
Time Altitude Azimuth
HUMSAT D 21 Nov 09:11:33 09:12:32 11° 93° (E) 09:13:30 437.325/437.525
CINEMA 3 21 Nov 09:14:32 09:18:37 51° 100° (E) 09:22:48 145.822/145.860
FUNcube-1 21 Nov 09:22:46 09:26:23 27° 97° (E) 09:30:02 145.935
CUBEBUG 2 21 Nov 09:23:56 09:27:54 40° 99° (E) 09:31:57 437.445
CUTE 1.7 & AOD 2 21 Nov 09:24:47 09:28:33 30° 288° (WNW) 09:32:18 437.475
POPSAT HIP 1 21 Nov 09:27:45 09:31:38 35° 73° (ENE) 09:35:31 437.405
DELFI C3 21 Nov 09:27:50 09:31:58 72° 101° (ESE) 09:36:05 145.870
UKube-1 21 Nov 09:28:01 09:32:22 73° 102° (ESE) 09:36:40 .
50 SAT 21 Nov 09:33:47 09:36:28 17° 95° (E) 09:39:09 437.505
UWE-3 21 Nov 09:35:10 09:39:14 47° 100° (E) 09:43:23 435.000/436.395/437.385
DOVE 4 21 Nov 09:37:11 09:41:08 45° 285° (WNW) 09:45:11 437.250
TIGRISAT 21 Nov 09:38:24 09:42:41 70° 76° (ENE) 09:46:56 435.000
BUGSAT 1 21 Nov 09:41:48 09:45:51 43° 74° (ENE) 09:49:53 437.445
Oscar 11 21 Nov 09:43:26 09:47:44 62° 284° (WNW) 09:52:01 145.826/435.025
ESTCUBE 1 21 Nov 09:47:25 09:48:46 11° 92° (E) 09:50:07 437.505/2401.250
UNISAT 6 21 Nov 09:49:01 09:53:21 84° 257° (WSW) 09:57:38 437.425
GONETS M04 21 Nov 09:55:52 10:03:01 28° 288° (WNW) 10:10:16
GOMX 1 21 Nov 09:55:55 09:58:59 20° 290° (WNW) 10:02:05 467.674
POLYITAN 1 21 Nov 09:57:34 10:01:51 85° 77° (ENE) 10:06:09 437.675
DX 1 21 Nov 09:58:27 10:02:37 46° 287° (WNW) 10:06:45 434.975-435.025
BRITE-PL 21 Nov 09:58:50 10:00:56 14° 292° (WNW) 10:03:02 437.365/2234.400
QB50P2 21 Nov 10:01:46 10:06:03 86° 258° (WSW) 10:10:21 145.880/145.840
VELOX 1 21 Nov 10:04:58 10:09:19 55° 101° (E) 10:13:37 145.980
SEEDS 21 Nov 10:06:15 10:08:04 13° 293° (WNW) 10:09:52 437.485
DUCHIFAT 1 21 Nov 10:11:20 10:15:35 66° 259° (WSW) 10:19:50 145.980
ANTELSAT 21 Nov 10:17:32 10:21:31 37° 261° (W) 10:25:29 437.575/2403.000
ZACube-1 21 Nov 10:22:05 10:26:10 52° 285° (WNW) 10:30:19 437.345
AISAT 21 Nov 10:27:51 10:32:17 76° 284° (WNW) 10:36:40 437.250
NANOSAT C BR1 21 Nov 10:30:11 10:34:10 38° 261° (W) 10:38:09 145.865
HO-68 21 Nov 10:33:21 10:37:47 18° 300° (WNW) 10:42:13 435.675
QB50P1 21 Nov 10:39:38 10:43:22 29° 263° (W) 10:47:07 145.935-145.965
HUMSAT D 21 Nov 10:44:33 10:48:32 46° 285° (WNW) 10:52:32 437.325/437.525
CINEMA 3 21 Nov 10:54:36 10:55:24 11° 293° (WNW) 10:56:11 145.822/145.860
FUNcube-1 21 Nov 10:59:32 11:02:33 19° 290° (WNW) 11:05:36 145.935
CUBEBUG 1 21 Nov 11:00:22 11:04:45 84° 102° (ESE) 11:09:05 437.445
CUBEBUG 2 21 Nov 11:02:10 11:04:16 14° 292° (WNW) 11:06:23 437.445
POPSAT HIP 1 21 Nov 11:05:04 11:07:36 15° 266° (W) 11:10:09 437.405
50 SAT 21 Nov 11:08:18 11:11:47 28° 288° (WNW) 11:15:16 437.505
SPROUT 21 Nov 11:10:14 11:13:25 20° 95° (E) 11:16:35 437.525
UWE-3 21 Nov 11:13:53 11:15:22 12° 293° (WNW) 11:16:52 435.000/436.395/437.385
TISAT 1 21 Nov 11:16:17 11:19:53 27° 97° (E) 11:23:28 437.305
BUGSAT 1 21 Nov 11:19:39 11:21:30 13° 267° (W) 11:23:21 437.445
ESTCUBE 1 21 Nov 11:21:29 11:25:55 53° 286° (WNW) 11:30:18 437.505/2401.250
VELOX 1 21 Nov 11:44:03 11:45:22 11° 295° (WNW) 11:46:42 145.980
AUBIESAT-1 21 Nov 11:47:04 11:49:15 13° 96° (E) 11:51:25 437.475
M-CUBED/EXP-1 PRIME 21 Nov 11:48:05 11:50:51 15° 97° (E) 11:53:35 437.505
BEESAT 21 Nov 12:02:55 12:04:54 12° 93° (E) 12:06:53 436.000
YUBILEINY 21 Nov 12:25:02 12:30:50 19° 69° (ENE) 12:36:33 435.215
Oscar 19 21 Nov 12:32:04 12:37:10 81° 76° (ENE) 12:42:17 437.125/150
SO-50 21 Nov 12:36:38 12:40:03 19° 50° (NE) 12:43:28 436.795
SPROUT 21 Nov 12:45:52 12:49:27 27° 289° (WNW) 12:53:02 437.525
TISAT 1 21 Nov 12:52:31 12:55:31 19° 291° (WNW) 12:58:30 437.305
ITUPSAT 1 21 Nov 12:53:08 12:57:46 46° 100° (E) 13:02:21 437.325
CUSAT 1 21 Nov 13:05:39 13:08:55 85° 98° (E) 13:11:39 437.405
SWISSCUBE 21 Nov 13:06:00 13:10:48 73° 102° (ESE) 13:15:34 437.505
DANDE 21 Nov 13:09:01 13:12:29 72° 98° (E) 13:15:18 436.750
ITAMSAT 1 21 Nov 13:13:38 13:18:51 78° 75° (ENE) 13:24:05 435.822/435.867
Gurwin Techsat 1B 21 Nov 13:16:27 13:21:28 44° 72° (ENE) 13:26:29 435.225
AUBIESAT-1 21 Nov 13:19:40 13:24:30 60° 290° (WNW) 13:29:15 437.475
M-CUBED/EXP-1 PRIME 21 Nov 13:21:18 13:26:05 53° 290° (WNW) 13:30:49 437.505
STARS 21 Nov 13:22:36 13:23:29 11° 93° (E) 13:24:21 437.465
AO-7 21 Nov 13:36:47 13:42:30 21° 57° (ENE) 13:48:13 29.400- 29.500
BEESAT 21 Nov 13:38:20 13:43:01 53° 286° (WNW) 13:47:39 436.000
KKS-1 21 Nov 13:49:41 13:53:48 37° 99° (E) 13:57:54 437.445
HORYU 2 21 Nov 13:58:13 14:02:28 49° 74° (ENE) 14:06:45 437.375
RS-15 21 Nov 14:04:56 14:07:29 11° 98° (E) 14:10:01 29.354- 29.394
VERMONT LUNAR 21 Nov 14:11:52 14:13:41 13° 140° (SE) 14:15:30 437.305
SO-50 21 Nov 14:16:08 14:20:50 49° 246° (WSW) 14:25:32 436.795
YUBILEINY 21 Nov 14:19:44 14:28:26 76° 267° (W) 14:37:03 435.215
ITUPSAT 1 21 Nov 14:32:25 14:35:13 16° 294° (WNW) 14:38:01 437.325
JAS-2 21 Nov 14:41:51 14:46:02 16° 59° (ENE) 14:50:19 435.910
STARS 21 Nov 14:55:57 15:00:13 52° 286° (WNW) 15:04:28 437.465
Gurwin Techsat 1B 21 Nov 14:57:58 15:01:34 18° 266° (W) 15:05:11 435.225
PHONESAT 2.4 21 Nov 15:17:16 15:20:36 32° 146° (SE) 15:23:57 2401.200-2431.200
AO-7 21 Nov 15:26:07 15:34:22 77° 254° (WSW) 15:42:43 29.400- 29.500
KKS-1 21 Nov 15:27:23 15:30:07 16° 292° (WNW) 15:32:51 437.445
HORYU 2 21 Nov 15:37:50 15:39:22 12° 267° (W) 15:40:55 437.375
MaSat-1 21 Nov 15:47:12 15:50:24 53° 293° (WNW) 15:53:18 437.345
O/OREOS (USA 219) 21 Nov 15:47:38 15:51:08 22° 63° (ENE) 15:54:38 437.305
VERMONT LUNAR 21 Nov 15:48:10 15:51:47 82° 153° (SSE) 15:55:26 437.305
MOZHAYETS 4 21 Nov 15:55:41 15:59:18 22° 95° (E) 16:02:55
CUTE-I 21 Nov 15:59:59 16:02:25 13° 63° (ENE) 16:04:50 437.470
RS-15 21 Nov 16:06:54 16:17:50 72° 114° (ESE) 16:28:40 29.354- 29.394
JAS-2 21 Nov 16:22:31 16:29:49 88° 76° (ENE) 16:37:42 435.910
YUBILEINY 21 Nov 16:22:57 16:23:37 10° 284° (WNW) 16:24:16 435.215
Cubesat XI-IV 21 Nov 16:53:56 16:59:03 47° 72° (ENE) 17:04:10 437.490
PHONESAT 2.4 21 Nov 16:55:41 16:59:19 51° 340° (NNW) 17:02:58 2401.200-2431.200
PRISM 21 Nov 17:17:55 17:21:41 31° 98° (E) 17:25:25 437.425
CUBESAT XI-V 21 Nov 17:24:28 17:26:31 13° 92° (E) 17:28:33 437.345
AO-7 21 Nov 17:26:32 17:28:11 11° 269° (W) 17:29:50 29.400- 29.500
O/OREOS (USA 219) 21 Nov 17:26:43 17:30:27 27° 257° (WSW) 17:34:12 437.305
VERMONT LUNAR 21 Nov 17:27:14 17:30:32 31° 349° (N) 17:33:50 437.305
MOZHAYETS 4 21 Nov 17:32:29 17:36:28 29° 289° (WNW) 17:40:27
STRAND 1 21 Nov 17:34:54 17:38:14 17° 94° (E) 17:41:33 437.568
CUTE-I 21 Nov 17:36:30 17:41:50 68° 258° (WSW) 17:47:12 437.470
JAS-2 21 Nov 18:11:52 18:15:40 15° 272° (W) 18:19:36 435.910
GONETS M04 21 Nov 18:13:58 18:20:23 22° 70° (ENE) 18:26:44
RS-15 21 Nov 18:21:51 18:31:04 30° 316° (NW) 18:40:23 29.354- 29.394
PHONESAT 2.4 21 Nov 18:35:23 18:38:36 27° 357° (N) 18:41:49 2401.200-2431.200
Cubesat XI-IV 21 Nov 18:35:45 18:39:18 18° 266° (W) 18:42:52 437.490
PRISM 21 Nov 18:54:08 18:56:59 18° 292° (WNW) 18:59:49 437.425
CUBESAT XI-V 21 Nov 18:59:41 19:04:12 49° 286° (WNW) 19:08:39 437.345
VERMONT LUNAR 21 Nov 19:06:26 19:09:37 28° 6° (N) 19:12:48 437.305
HO-68 21 Nov 19:08:04 19:14:33 38° 67° (ENE) 19:21:02 435.675
STRAND 1 21 Nov 19:12:45 19:17:34 43° 288° (WNW) 19:22:22 437.568
SEEDS 21 Nov 19:18:10 19:21:11 20° 70° (ENE) 19:24:13 437.485
GOMX 1 21 Nov 19:22:10 19:25:50 21° 70° (ENE) 19:29:19 467.674
BRITE-PL 21 Nov 19:25:24 19:30:03 33° 73° (ENE) 19:34:25 437.365/2234.400
BEESAT 3 21 Nov 19:33:09 19:35:07 13° 108° (ESE) 19:37:06 437.485
AIST 1 21 Nov 19:33:17 19:37:33 55° 93° (E) 19:41:51
CANX-2 21 Nov 19:38:18 19:42:18 44° 74° (ENE) 19:46:19 2200.000
BEESAT 2 21 Nov 19:43:59 19:46:33 16° 109° (ESE) 19:49:09 435.950
AAUSAT CUBESAT 2 21 Nov 19:44:04 19:47:39 29° 72° (ENE) 19:51:15 437.432
COMPASS 1 21 Nov 19:55:34 19:59:32 46° 75° (ENE) 20:03:33 437.405
AIST 2 21 Nov 19:58:53 19:59:59 11° 107° (ESE) 20:01:06 435.215
PCSat 21 Nov 20:02:14 20:07:38 85° 114° (ESE) 20:13:04 145.827
GONETS M04 21 Nov 20:09:07 20:17:51 69° 268° (W) 20:26:31
CINEMA 3 21 Nov 20:12:58 20:16:56 31° 73° (ENE) 20:20:46 145.822/145.860
CUTE 1.7 & AOD 2 21 Nov 20:13:24 20:17:35 72° 259° (WSW) 20:21:49 437.475
DELFI C3 21 Nov 20:13:25 20:16:48 26° 72° (ENE) 20:20:12 145.870
PHONESAT 2.4 21 Nov 20:14:29 20:17:58 38° 15° (NNE) 20:21:27 2401.200-2431.200
FUNcube-1 21 Nov 20:16:43 20:18:56 14° 68° (ENE) 20:21:09 145.935
CUBEBUG 2 21 Nov 20:19:26 20:22:46 22° 71° (ENE) 20:26:01 437.445
UKube-1 21 Nov 20:19:29 20:23:29 36° 72° (ENE) 20:27:29 .
UWE-3 21 Nov 20:29:27 20:32:56 24° 71° (ENE) 20:36:21 435.000/436.395/437.385
Oscar 11 21 Nov 20:34:12 20:38:25 59° 75° (ENE) 20:42:39 145.826/435.025
DOVE 4 21 Nov 20:38:27 20:43:19 77° 258° (WSW) 20:47:53 437.250
SHINDAISAT 21 Nov 20:43:06 20:43:54 12° 248° (WSW) 20:44:42 437.305
VERMONT LUNAR 21 Nov 20:44:53 20:48:30 68° 23° (NNE) 20:52:06 437.305
RS-15 21 Nov 20:47:46 20:48:52 10° 350° (N) 20:49:59 29.354- 29.394
DX 1 21 Nov 20:49:49 20:54:13 89° 77° (ENE) 20:58:37 434.975-435.025
SEEDS 21 Nov 20:53:18 20:56:50 26° 263° (W) 21:00:23 437.485
HO-68 21 Nov 20:55:45 21:02:09 35° 262° (W) 21:08:36 435.675
GOMX 1 21 Nov 20:59:10 21:03:44 34° 262° (W) 21:08:03 467.674
VELOX 1 21 Nov 20:59:20 21:03:16 31° 71° (ENE) 21:07:12 145.980
BRITE-PL 21 Nov 21:04:18 21:08:29 24° 263° (W) 21:12:29 437.365/2234.400
BEESAT 3 21 Nov 21:09:04 21:12:56 41° 302° (WNW) 21:16:53 437.485
ZACube-1 21 Nov 21:14:15 21:18:31 73° 77° (ENE) 21:22:43 437.345
CANX-2 21 Nov 21:17:03 21:18:26 11° 268° (W) 21:19:50 2200.000
AAUSAT CUBESAT 2 21 Nov 21:20:35 21:23:20 17° 266° (W) 21:26:06 437.432
BEESAT 2 21 Nov 21:20:46 21:24:32 34° 303° (WNW) 21:28:21 435.950
AISAT 21 Nov 21:22:03 21:26:28 59° 75° (ENE) 21:30:53 437.250
HUMSAT D 21 Nov 21:32:47 21:36:56 71° 76° (ENE) 21:41:04 437.325/437.525
AIST 2 21 Nov 21:33:59 21:38:05 52° 301° (WNW) 21:42:17 435.215
COMPASS 1 21 Nov 21:34:38 21:35:29 11° 268° (W) 21:36:21 437.405
TIGRISAT 21 Nov 21:34:59 21:38:14 20° 96° (E) 21:41:30 435.000
UNISAT 6 21 Nov 21:45:31 21:49:18 27° 97° (E) 21:53:07 437.425
POLYITAN 1 21 Nov 21:48:41 21:51:41 19° 95° (E) 21:54:40 437.675
DELFI C3 21 Nov 21:49:13 21:52:04 19° 265° (W) 21:54:56 145.870
PCSat 21 Nov 21:49:26 21:51:43 13° 312° (NW) 21:54:01 145.827
CINEMA 3 21 Nov 21:50:55 21:54:08 19° 264° (W) 21:57:15 145.822/145.860
FUNcube-1 21 Nov 21:50:57 21:54:57 39° 261° (W) 21:58:54 145.935
QB50P2 21 Nov 21:52:29 21:55:41 21° 96° (E) 21:58:53 145.880/145.840
CUBEBUG 1 21 Nov 21:52:48 21:56:59 42° 73° (ENE) 22:01:11 437.445
50 SAT 21 Nov 21:52:49 21:56:52 77° 258° (WSW) 22:00:55 437.505
PHONESAT 2.4 21 Nov 21:53:15 21:56:53 55° 210° (SSW) 22:00:30 2401.200-2431.200
CUBEBUG 2 21 Nov 21:55:43 21:59:19 25° 263° (W) 22:02:52 437.445
UKube-1 21 Nov 21:57:10 21:59:44 15° 266° (W) 22:02:18 .
DUCHIFAT 1 21 Nov 22:01:21 22:04:54 26° 97° (E) 22:08:25 145.980
SPROUT 21 Nov 22:03:37 22:04:13 10° 66° (ENE) 22:04:48 437.525
UWE-3 21 Nov 22:06:00 22:09:23 22° 264° (W) 22:12:42 435.000/436.395/437.385
TISAT 1 21 Nov 22:06:44 22:08:54 14° 67° (ENE) 22:11:03 437.305
ANTELSAT 21 Nov 22:13:12 22:17:34 59° 101° (E) 22:22:02 437.575/2403.000
ESTCUBE 1 21 Nov 22:17:00 22:21:33 86° 76° (ENE) 22:26:07 437.505/2401.250
NANOSAT C BR1 21 Nov 22:19:33 22:23:36 45° 99° (E) 22:27:37 145.865
VERMONT LUNAR 21 Nov 22:23:57 22:26:46 21° 217° (SW) 22:29:34 437.305
QB50P1 21 Nov 22:28:42 22:32:52 59° 101° (E) 22:37:01 145.935-145.965
VELOX 1 21 Nov 22:36:37 22:39:50 19° 265° (W) 22:43:05 145.980
POPSAT HIP 1 21 Nov 22:52:51 22:57:02 68° 284° (WNW) 23:01:12 437.405
RS-15 21 Nov 23:02:07 23:08:35 16° 29° (NNE) 23:15:09 29.354- 29.394
BUGSAT 1 21 Nov 23:03:55 23:07:57 59° 285° (WNW) 23:11:55 437.445
TIGRISAT 21 Nov 23:11:09 23:14:57 29° 288° (WNW) 23:18:48 435.000
UNISAT 6 21 Nov 23:22:32 23:25:55 22° 290° (WNW) 23:29:22 437.425
POLYITAN 1 21 Nov 23:24:01 23:27:37 28° 289° (WNW) 23:31:12 437.675
QB50P2 21 Nov 23:28:04 23:31:32 25° 289° (WNW) 23:34:59 145.880/145.840
CUBEBUG 1 21 Nov 23:31:12 23:33:30 14° 267° (W) 23:35:49 437.445
SPROUT 21 Nov 23:35:30 23:39:46 58° 260° (W) 23:44:02 437.525
DUCHIFAT 1 21 Nov 23:37:30 23:40:35 20° 290° (WNW) 23:43:40 145.980
TISAT 1 21 Nov 23:40:18 23:44:21 41° 261° (W) 23:48:24 437.305
ISS 21 Nov 23:43:30 23:46:40 46° 133° (SE) 23:49:50 145.825
CUSAT 1 21 Nov 23:46:05 23:50:24 45° 82° (E) 23:56:09 437.405
DANDE 21 Nov 23:51:50 23:55:57 42° 82° (E) 00:01:27 436.750
ANTELSAT 21 Nov 23:52:51 23:53:53 11° 294° (WNW) 23:54:54 437.575/2403.000
ITUPSAT 1 21 Nov 23:56:21 00:00:40 34° 71° (ENE) 00:05:01 437.325
NANOSAT C BR1 21 Nov 23:57:20 23:59:03 12° 293° (WNW) 00:00:46 145.865
AUBIESAT-1 22 Nov 00:05:45 00:09:32 80° 254° (WSW) 00:13:42 437.475
M-CUBED/EXP-1 PRIME 22 Nov 00:07:47 00:11:31 67° 255° (WSW) 00:15:39 437.505
SWISSCUBE 22 Nov 00:08:45 00:13:24 52° 74° (ENE) 00:18:05 437.505
JUGNU 22 Nov 00:37:09 00:40:42 16° 169° (SSE) 00:44:16 437.505
BEESAT 22 Nov 00:40:44 00:45:30 75° 258° (WSW) 00:50:18 436.000
KKS-1 22 Nov 00:44:53 00:48:16 22° 69° (ENE) 00:51:39 437.445
Oscar 19 22 Nov 00:47:56 00:52:46 39° 99° (E) 00:57:35 437.125/150
RS-15 22 Nov 01:12:58 01:24:03 58° 56° (NE) 01:35:35 29.354- 29.394
YUBILEINY 22 Nov 01:20:55 01:27:42 26° 83° (E) 01:34:27 435.215
ISS 22 Nov 01:21:20 01:23:29 16° 328° (NNW) 01:25:39 145.825
MaSat-1 22 Nov 01:30:25 01:32:44 73° 67° (ENE) 01:35:09 437.345
CUSAT 1 22 Nov 01:30:41 01:33:31 15° 266° (W) 01:36:46 437.405
ITAMSAT 1 22 Nov 01:30:58 01:35:47 38° 99° (E) 01:40:34 435.822/435.867
ITUPSAT 1 22 Nov 01:35:06 01:38:35 20° 265° (W) 01:42:06 437.325
DANDE 22 Nov 01:36:43 01:39:25 15° 265° (W) 01:42:33 436.750
Gurwin Techsat 1B 22 Nov 01:37:17 01:41:34 25° 96° (E) 01:45:50 435.225
STARS 22 Nov 01:48:58 01:53:23 81° 76° (ENE) 01:57:48 437.465
SWISSCUBE 22 Nov 01:49:24 01:51:31 13° 267° (W) 01:53:38 437.505
HORYU 2 22 Nov 01:55:37 01:57:49 13° 94° (E) 02:00:00 437.375
KKS-1 22 Nov 02:20:55 02:24:43 28° 263° (W) 02:28:33 437.445
JUGNU 22 Nov 02:24:41 02:29:05 21° 179° (S) 02:33:29 437.505
SRMSAT 22 Nov 02:27:16 02:31:11 18° 171° (S) 02:35:05 437.500
Oscar 19 22 Nov 02:28:03 02:31:47 21° 293° (WNW) 02:35:31 437.125/150
SO-50 22 Nov 02:49:53 02:51:25 12° 107° (ESE) 02:52:57 436.795
MOZHAYETS 4 22 Nov 02:55:23 02:57:40 14° 67° (ENE) 02:59:57
ITAMSAT 1 22 Nov 03:11:09 03:14:58 21° 293° (WNW) 03:18:46 435.822/435.867
YUBILEINY 22 Nov 03:15:11 03:23:49 58° 280° (W) 03:32:28 435.215
Gurwin Techsat 1B 22 Nov 03:16:47 03:21:30 33° 290° (WNW) 03:26:12 435.225
RS-15 22 Nov 03:26:01 03:35:54 36° 254° (WSW) 03:46:12 29.354- 29.394
HORYU 2 22 Nov 03:30:23 03:34:39 44° 287° (WNW) 03:38:54 437.375
AO-7 22 Nov 03:32:24 03:40:25 48° 102° (ESE) 03:48:23 29.400- 29.500
JAS-2 22 Nov 03:40:20 03:44:09 15° 88° (E) 03:47:45 435.910
PRISM 22 Nov 04:06:29 04:08:47 15° 67° (ENE) 04:11:06 437.425
JUGNU 22 Nov 04:13:30 04:17:28 18° 189° (S) 04:21:26 437.505
SRMSAT 22 Nov 04:15:19 04:19:43 21° 181° (S) 04:24:08 437.500
SO-50 22 Nov 04:26:59 04:31:22 56° 301° (WNW) 04:35:55 436.795
MOZHAYETS 4 22 Nov 04:30:02 04:34:26 48° 261° (W) 04:38:53
STRAND 1 22 Nov 04:47:18 04:50:40 18° 66° (ENE) 04:54:03 437.568
PCSat 22 Nov 04:54:41 04:59:23 29° 57° (ENE) 05:04:03 145.827
Cubesat XI-IV 22 Nov 05:15:55 05:20:18 26° 96° (E) 05:24:40 437.490
JAS-2 22 Nov 05:22:49 05:29:58 72° 286° (WNW) 05:36:15 435.910
AO-7 22 Nov 05:25:38 05:32:51 34° 297° (WNW) 05:40:04 29.400- 29.500
BEESAT 3 22 Nov 05:32:48 05:36:38 34° 56° (ENE) 05:40:24 437.485
PRISM 22 Nov 05:40:06 05:43:59 37° 261° (W) 05:47:54 437.425
BEESAT 2 22 Nov 05:44:33 05:48:33 41° 58° (ENE) 05:52:29 435.950
O/OREOS (USA 219) 22 Nov 05:55:03 05:59:27 54° 106° (ESE) 06:03:50 437.305
CUTE-I 22 Nov 05:57:51 06:03:10 69° 102° (ESE) 06:08:25 437.470
CUBESAT XI-V 22 Nov 05:58:44 06:03:27 82° 258° (WSW) 06:08:12 437.345
AIST 2 22 Nov 06:00:04 06:03:52 30° 55° (NE) 06:07:36 435.215
SRMSAT 22 Nov 06:04:36 06:08:15 17° 191° (S) 06:11:54 437.500
ISS 22 Nov 06:16:22 06:17:51 12° 29° (NNE) 06:19:20 145.825
STRAND 1 22 Nov 06:24:32 06:29:27 46° 260° (W) 06:34:24 437.568
PCSat 22 Nov 06:37:59 06:42:43 32° 252° (WSW) 06:47:27 145.827
Cubesat XI-IV 22 Nov 06:55:40 07:00:20 32° 290° (WNW) 07:04:59 437.490
GONETS M04 22 Nov 07:09:55 07:17:01 29° 84° (E) 07:24:08
BEESAT 3 22 Nov 07:11:51 07:14:34 17° 251° (WSW) 07:17:15 437.485
JAS-2 22 Nov 07:12:10 07:13:29 11° 305° (NW) 07:14:47 435.910
AIST 1 22 Nov 07:22:20 07:26:38 56° 267° (W) 07:30:52
BEESAT 2 22 Nov 07:24:17 07:26:26 14° 252° (WSW) 07:28:35 435.950
CANX-2 22 Nov 07:30:34 07:31:35 11° 92° (E) 07:32:36 2200.000
O/OREOS (USA 219) 22 Nov 07:37:25 07:39:09 12° 301° (WNW) 07:40:54 437.305
BRITE-PL 22 Nov 07:37:38 07:37:46 10° 92° (E) 07:37:54 437.365/2234.400
AIST 2 22 Nov 07:39:07 07:42:17 20° 250° (WSW) 07:45:24 435.215
CUTE-I 22 Nov 07:40:19 07:42:35 13° 297° (WNW) 07:44:50 437.470
COMPASS 1 22 Nov 07:46:22 07:47:19 11° 92° (E) 07:48:16 437.405
ISS 22 Nov 07:51:33 07:54:51 77° 225° (SW) 07:58:09 145.825
CUTE 1.7 & AOD 2 22 Nov 08:03:29 08:07:05 26° 96° (E) 08:10:40 437.475
HO-68 22 Nov 08:26:57 08:34:00 58° 102° (ESE) 08:41:00 435.675
Oscar 11 22 Nov 08:27:10 08:29:39 15° 94° (E) 08:32:08 145.826/435.025
TIGRISAT 22 Nov 08:32:45 08:33:48 11° 66° (ENE) 08:34:50 435.000
SEEDS 22 Nov 08:41:22 08:45:36 67° 101° (E) 08:49:51 437.485
DOVE 4 22 Nov 08:42:07 08:45:56 35° 98° (E) 08:49:51 437.250
UNISAT 6 22 Nov 08:42:31 08:44:58 15° 68° (ENE) 08:47:23 437.425
DX 1 22 Nov 08:43:20 08:46:36 21° 96° (E) 08:49:51 434.975-435.025
QB50P2 22 Nov 08:44:40 08:45:25 10° 66° (ENE) 08:46:09 145.880/145.840
DUCHIFAT 1 22 Nov 08:52:11 08:54:09 13° 67° (ENE) 08:56:06 145.980
